Time,TemperatureF,DewpointF,PressureIn,WindDirection,WindDirectionDegrees,WindSpeedMPH,WindSpeedGustMPH,Humidity,HourlyPrecipIn,Conditions,Clouds,dailyrainin,SoftwareType,DateUTC
2013-07-05 00:02:00,75.3,48.7,29.64,SSW,195,7.0,10.0,39,0.00,,,0.00,VWS V14.01,2013-07-05 05:02:00,
2013-07-05 00:07:00,75.1,48.5,29.64,SSW,196,5.0,9.0,39,0.00,,,0.00,VWS V14.01,2013-07-05 05:07:00,
2013-07-05 00:12:00,75.1,47.8,29.64,South,186,5.0,9.0,38,0.00,,,0.00,VWS V14.01,2013-07-05 05:12:00,
2013-07-05 00:17:00,74.9,47.6,29.63,SSW,192,5.0,11.0,38,0.00,,,0.00,VWS V14.01,2013-07-05 05:17:00,
2013-07-05 00:22:00,74.9,46.9,29.63,South,189,4.0,11.0,37,0.00,,,0.00,VWS V14.01,2013-07-05 05:22:00,
2013-07-05 00:27:00,74.9,47.6,29.63,South,182,5.0,11.0,38,0.00,,,0.00,VWS V14.01,2013-07-05 05:27:00,
2013-07-05 00:32:00,74.7,48.1,29.63,SSW,205,10.0,11.0,39,0.00,,,0.00,VWS V14.01,2013-07-05 05:32:00,
2013-07-05 00:37:00,74.7,48.8,29.63,SSE,154,3.0,11.0,40,0.00,,,0.00,VWS V14.01,2013-07-05 05:37:00,
2013-07-05 00:42:00,74.7,48.1,29.63,SSW,193,7.0,12.0,39,0.00,,,0.00,VWS V14.01,2013-07-05 05:42:00,
2013-07-05 00:47:00,74.6,48.7,29.64,SSW,196,6.0,12.0,40,0.00,,,0.00,VWS V14.01,2013-07-05 05:47:00,
2013-07-05 00:52:00,74.4,48.5,29.64,South,178,7.0,10.0,40,0.00,,,0.00,VWS V14.01,2013-07-05 05:52:00,
2013-07-05 00:57:00,74.2,47.7,29.64,South,189,5.0,10.0,39,0.00,,,0.00,VWS V14.01,2013-07-05 05:57:00,
2013-07-05 01:02:00,74.0,49.5,29.64,South,182,7.0,10.0,42,0.00,,,0.00,VWS V14.01,2013-07-05 06:02:00,
2013-07-05 01:07:00,73.7,48.6,29.64,SSW,198,6.0,14.0,41,0.00,,,0.00,VWS V14.01,2013-07-05 06:07:00,
2013-07-05 01:12:00,73.5,48.4,29.64,South,191,6.0,14.0,41,0.00,,,0.00,VWS V14.01,2013-07-05 06:12:00,
2013-07-05 01:17:00,73.3,48.2,29.63,South,186,7.0,14.0,41,0.00,,,0.00,VWS V14.01,2013-07-05 06:17:00,
2013-07-05 01:22:00,73.2,49.4,29.63,SSW,193,7.0,11.0,43,0.00,,,0.00,VWS V14.01,2013-07-05 06:22:00,
2013-07-05 01:27:00,72.8,49.0,29.63,SSW,196,5.0,11.0,43,0.00,,,0.00,VWS V14.01,2013-07-05 06:27:00,
2013-07-05 01:32:00,72.7,48.9,29.63,South,184,6.0,11.0,43,0.00,,,0.00,VWS V14.01,2013-07-05 06:32:00,
2013-07-05 01:37:00,72.5,48.1,29.63,SSW,200,7.0,10.0,42,0.00,,,0.00,VWS V14.01,2013-07-05 06:37:00,
2013-07-05 01:42:00,72.3,49.8,29.63,South,189,7.0,10.0,45,0.00,,,0.00,VWS V14.01,2013-07-05 06:42:00,
2013-07-05 01:47:00,72.0,50.1,29.64,SSW,198,6.0,10.0,46,0.00,,,0.00,VWS V14.01,2013-07-05 06:47:00,
2013-07-05 01:52:00,71.8,50.5,29.64,SSW,195,6.0,7.0,47,0.00,,,0.00,VWS V14.01,2013-07-05 06:52:00,
2013-07-05 01:57:00,71.6,50.3,29.64,South,184,5.0,9.0,47,0.00,,,0.00,VWS V14.01,2013-07-05 06:57:00,
2013-07-05 02:02:00,71.3,50.0,29.64,South,191,5.0,11.0,47,0.00,,,0.00,VWS V14.01,2013-07-05 07:02:00,
2013-07-05 02:07:00,71.1,49.3,29.64,SSW,192,5.0,11.0,46,0.00,,,0.00,VWS V14.01,2013-07-05 07:07:00,
2013-07-05 02:12:00,71.1,49.9,29.64,SSW,196,8.0,11.0,47,0.00,,,0.00,VWS V14.01,2013-07-05 07:12:00,
2013-07-05 02:17:00,70.9,50.8,29.64,SSW,198,6.0,11.0,49,0.00,,,0.00,VWS V14.01,2013-07-05 07:17:00,
2013-07-05 02:22:00,70.9,49.7,29.64,South,169,5.0,10.0,47,0.00,,,0.00,VWS V14.01,2013-07-05 07:22:00,
2013-07-05 02:27:00,70.8,49.0,29.64,South,182,4.0,10.0,46,0.00,,,0.00,VWS V14.01,2013-07-05 07:27:00,
2013-07-05 02:32:00,70.8,49.0,29.63,SSW,193,5.0,10.0,46,0.00,,,0.00,VWS V14.01,2013-07-05 07:32:00,
2013-07-05 02:37:00,70.9,50.8,29.63,SSW,193,2.0,8.0,49,0.00,,,0.00,VWS V14.01,2013-07-05 07:37:00,
2013-07-05 02:42:00,70.8,50.7,29.63,SSW,202,5.0,8.0,49,0.00,,,0.00,VWS V14.01,2013-07-05 07:42:00,
2013-07-05 02:47:00,70.6,49.4,29.63,South,182,4.0,8.0,47,0.00,,,0.00,VWS V14.01,2013-07-05 07:47:00,
2013-07-05 02:52:00,70.3,50.3,29.63,SE,145,3.0,6.0,49,0.00,,,0.00,VWS V14.01,2013-07-05 07:52:00,
2013-07-05 02:57:00,69.9,49.3,29.63,South,169,2.0,6.0,48,0.00,,,0.00,VWS V14.01,2013-07-05 07:57:00,
2013-07-05 03:02:00,69.8,49.8,29.63,South,185,2.0,7.0,49,0.00,,,0.00,VWS V14.01,2013-07-05 08:02:00,
2013-07-05 03:07:00,69.8,50.3,29.63,SSW,202,4.0,10.0,50,0.00,,,0.00,VWS V14.01,2013-07-05 08:07:00,
2013-07-05 03:12:00,69.8,50.3,29.63,SSW,192,6.0,10.0,50,0.00,,,0.00,VWS V14.01,2013-07-05 08:12:00,
2013-07-05 03:17:00,69.8,51.4,29.63,SSW,193,4.0,10.0,52,0.00,,,0.00,VWS V14.01,2013-07-05 08:17:00,
2013-07-05 03:22:00,69.6,51.2,29.63,South,182,5.0,8.0,52,0.00,,,0.00,VWS V14.01,2013-07-05 08:22:00,
2013-07-05 03:27:00,69.6,50.7,29.63,South,186,7.0,8.0,51,0.00,,,0.00,VWS V14.01,2013-07-05 08:27:00,
2013-07-05 03:32:00,69.6,51.2,29.63,South,184,5.0,8.0,52,0.00,,,0.00,VWS V14.01,2013-07-05 08:32:00,
2013-07-05 03:37:00,69.6,51.2,29.63,SSW,196,6.0,7.0,52,0.00,,,0.00,VWS V14.01,2013-07-05 08:37:00,
2013-07-05 03:42:00,69.6,50.2,29.63,SSW,195,5.0,8.0,50,0.00,,,0.00,VWS V14.01,2013-07-05 08:42:00,
2013-07-05 03:47:00,69.8,50.9,29.63,South,188,6.0,8.0,51,0.00,,,0.00,VWS V14.01,2013-07-05 08:47:00,
2013-07-05 03:52:00,69.8,50.9,29.63,South,181,3.0,9.0,51,0.00,,,0.00,VWS V14.01,2013-07-05 08:52:00,
2013-07-05 03:58:00,69.6,51.2,29.63,South,188,5.0,10.0,52,0.00,,,0.00,VWS V14.01,2013-07-05 08:58:00,
2013-07-05 04:03:00,69.4,50.5,29.62,South,188,6.0,10.0,51,0.00,,,0.00,VWS V14.01,2013-07-05 09:03:00,
2013-07-05 04:08:00,69.3,51.5,29.62,South,185,4.0,10.0,53,0.00,,,0.00,VWS V14.01,2013-07-05 09:08:00,
2013-07-05 04:13:00,69.3,50.4,29.62,South,171,4.0,10.0,51,0.00,,,0.00,VWS V14.01,2013-07-05 09:13:00,
2013-07-05 04:18:00,69.3,50.9,29.61,SSW,212,5.0,6.0,52,0.00,,,0.00,VWS V14.01,2013-07-05 09:18:00,
2013-07-05 04:23:00,69.1,50.8,29.61,South,191,5.0,7.0,52,0.00,,,0.00,VWS V14.01,2013-07-05 09:23:00,
2013-07-05 04:28:00,69.1,50.2,29.61,South,188,7.0,7.0,51,0.00,,,0.00,VWS V14.01,2013-07-05 09:28:00,
2013-07-05 04:33:00,68.9,51.1,29.61,South,176,3.0,6.0,53,0.00,,,0.00,VWS V14.01,2013-07-05 09:33:00,
2013-07-05 04:38:00,68.9,50.6,29.61,SSW,192,3.0,6.0,52,0.00,,,0.00,VWS V14.01,2013-07-05 09:38:00,
2013-07-05 04:43:00,68.8,52.0,29.61,South,175,5.0,6.0,55,0.00,,,0.00,VWS V14.01,2013-07-05 09:43:00,
2013-07-05 04:48:00,68.8,52.0,29.61,South,176,2.0,5.0,55,0.00,,,0.00,VWS V14.01,2013-07-05 09:48:00,
2013-07-05 04:53:00,68.9,51.1,29.61,SSE,168,2.0,7.0,53,0.00,,,0.00,VWS V14.01,2013-07-05 09:53:00,
2013-07-05 04:58:00,68.9,51.1,29.61,South,172,2.0,7.0,53,0.00,,,0.00,VWS V14.01,2013-07-05 09:58:00,
2013-07-05 05:04:00,68.9,50.6,29.61,South,174,3.0,7.0,52,0.00,,,0.00,VWS V14.01,2013-07-05 10:04:00,
2013-07-05 05:09:00,68.9,51.1,29.61,South,178,5.0,7.0,53,0.00,,,0.00,VWS V14.01,2013-07-05 10:09:00,
2013-07-05 05:14:00,68.8,51.0,29.61,South,178,5.0,7.0,53,0.00,,,0.00,VWS V14.01,2013-07-05 10:14:00,
2013-07-05 05:19:00,68.4,51.6,29.61,SSE,167,2.0,5.0,55,0.00,,,0.00,VWS V14.01,2013-07-05 10:19:00,
2013-07-05 05:24:00,68.1,50.8,29.61,South,172,3.0,7.0,54,0.00,,,0.00,VWS V14.01,2013-07-05 10:24:00,
2013-07-05 05:29:00,67.8,51.5,29.61,South,172,4.0,7.0,56,0.00,,,0.00,VWS V14.01,2013-07-05 10:29:00,
2013-07-05 05:34:00,67.4,51.7,29.61,South,172,4.0,5.0,57,0.00,,,0.00,VWS V14.01,2013-07-05 10:34:00,
2013-07-05 05:39:00,67.3,51.1,29.61,South,172,3.0,5.0,56,0.00,,,0.00,VWS V14.01,2013-07-05 10:39:00,
2013-07-05 05:44:00,66.9,51.2,29.61,South,172,0.0,5.0,57,0.00,,,0.00,VWS V14.01,2013-07-05 10:44:00,
2013-07-05 05:49:00,66.8,51.6,29.62,South,172,2.0,5.0,58,0.00,,,0.00,VWS V14.01,2013-07-05 10:49:00,
2013-07-05 05:54:00,66.6,51.4,29.62,South,172,0.0,5.0,58,0.00,,,0.00,VWS V14.01,2013-07-05 10:54:00,
2013-07-05 05:59:00,66.3,51.6,29.62,South,172,2.0,5.0,59,0.00,,,0.00,VWS V14.01,2013-07-05 10:59:00,
2013-07-05 06:04:00,66.1,51.4,29.62,South,172,0.0,1.0,59,0.00,,,0.00,VWS V14.01,2013-07-05 11:04:00,
2013-07-05 06:09:00,66.0,52.2,29.62,South,172,0.0,2.0,61,0.00,,,0.00,VWS V14.01,2013-07-05 11:09:00,
2013-07-05 06:14:00,66.0,51.7,29.62,South,172,0.0,2.0,60,0.00,,,0.00,VWS V14.01,2013-07-05 11:14:00,
2013-07-05 06:19:00,65.8,51.5,29.62,South,172,0.0,2.0,60,0.00,,,0.00,VWS V14.01,2013-07-05 11:19:00,
2013-07-05 06:24:00,65.8,52.0,29.62,South,172,2.0,4.0,61,0.00,,,0.00,VWS V14.01,2013-07-05 11:24:00,
2013-07-05 06:29:00,65.6,50.9,29.62,South,172,0.0,4.0,59,0.00,,,0.00,VWS V14.01,2013-07-05 11:29:00,
2013-07-05 06:34:00,65.6,51.4,29.62,South,172,1.0,3.0,60,0.00,,,0.00,VWS V14.01,2013-07-05 11:34:00,
2013-07-05 06:40:00,65.6,50.4,29.62,South,172,2.0,5.0,58,0.00,,,0.00,VWS V14.01,2013-07-05 11:40:00,
2013-07-05 06:45:00,65.6,51.8,29.62,South,174,2.0,6.0,61,0.00,,,0.00,VWS V14.01,2013-07-05 11:45:00,
2013-07-05 06:50:00,65.6,51.4,29.63,South,174,4.0,5.0,60,0.00,,,0.00,VWS V14.01,2013-07-05 11:50:00,
2013-07-05 06:55:00,65.6,50.9,29.63,South,174,2.0,5.0,59,0.00,,,0.00,VWS V14.01,2013-07-05 11:55:00,
2013-07-05 07:00:00,65.5,51.7,29.63,South,174,2.0,5.0,61,0.00,,,0.00,VWS V14.01,2013-07-05 12:00:00,
2013-07-05 07:06:00,65.5,52.2,29.62,South,174,2.0,5.0,62,0.00,,,0.00,VWS V14.01,2013-07-05 12:06:00,
2013-07-05 07:11:00,65.5,51.7,29.62,South,174,5.0,5.0,61,0.00,,,0.00,VWS V14.01,2013-07-05 12:11:00,
2013-07-05 07:16:00,65.6,51.4,29.62,South,178,5.0,7.0,60,0.00,,,0.00,VWS V14.01,2013-07-05 12:16:00,
2013-07-05 07:21:00,65.8,52.9,29.63,South,178,4.0,6.0,63,0.00,,,0.00,VWS V14.01,2013-07-05 12:21:00,
2013-07-05 07:27:00,66.0,52.6,29.63,South,178,4.0,6.0,62,0.00,,,0.00,VWS V14.01,2013-07-05 12:27:00,
2013-07-05 07:32:00,66.1,52.7,29.63,South,178,2.0,6.0,62,0.00,,,0.00,VWS V14.01,2013-07-05 12:32:00,
2013-07-05 07:37:00,66.1,53.6,29.63,South,178,2.0,5.0,64,0.00,,,0.00,VWS V14.01,2013-07-05 12:37:00,
2013-07-05 07:42:00,66.3,52.9,29.63,South,178,4.0,5.0,62,0.00,,,0.00,VWS V14.01,2013-07-05 12:42:00,
2013-07-05 07:47:00,66.4,52.6,29.62,South,176,3.0,6.0,61,0.00,,,0.00,VWS V14.01,2013-07-05 12:47:00,
2013-07-05 07:52:00,66.4,53.0,29.62,South,176,5.0,6.0,62,0.00,,,0.00,VWS V14.01,2013-07-05 12:52:00,
2013-07-05 07:57:00,66.4,53.0,29.62,South,176,2.0,6.0,62,0.00,,,0.00,VWS V14.01,2013-07-05 12:57:00,
2013-07-05 08:02:00,66.4,53.0,29.63,South,176,2.0,6.0,62,0.00,,,0.00,VWS V14.01,2013-07-05 13:02:00,
2013-07-05 08:07:00,66.4,53.0,29.63,South,176,3.0,5.0,62,0.00,,,0.00,VWS V14.01,2013-07-05 13:07:00,
2013-07-05 08:12:00,66.6,53.2,29.63,South,178,2.0,6.0,62,0.00,,,0.00,VWS V14.01,2013-07-05 13:12:00,
2013-07-05 08:17:00,66.6,52.8,29.64,South,178,2.0,6.0,61,0.00,,,0.00,VWS V14.01,2013-07-05 13:17:00,
2013-07-05 08:23:00,66.6,52.8,29.64,South,181,5.0,7.0,61,0.00,,,0.00,VWS V14.01,2013-07-05 13:23:00,
2013-07-05 08:28:00,66.8,53.8,29.64,South,181,4.0,7.0,63,0.00,,,0.00,VWS V14.01,2013-07-05 13:28:00,
2013-07-05 08:33:00,66.9,54.3,29.64,South,181,3.0,5.0,64,0.00,,,0.00,VWS V14.01,2013-07-05 13:33:00,
2013-07-05 08:38:00,67.1,53.7,29.64,South,181,2.0,6.0,62,0.00,,,0.00,VWS V14.01,2013-07-05 13:38:00,
2013-07-05 08:43:00,67.3,54.7,29.64,South,181,2.0,6.0,64,0.00,,,0.00,VWS V14.01,2013-07-05 13:43:00,
2013-07-05 08:48:00,67.4,55.2,29.64,South,181,3.0,5.0,65,0.00,,,0.00,VWS V14.01,2013-07-05 13:48:00,
2013-07-05 08:53:00,67.4,54.4,29.64,South,185,4.0,7.0,63,0.00,,,0.00,VWS V14.01,2013-07-05 13:53:00,
2013-07-05 08:58:00,67.6,55.0,29.64,South,184,4.0,7.0,64,0.00,,,0.00,VWS V14.01,2013-07-05 13:58:00,
2013-07-05 09:03:00,67.6,54.1,29.64,South,184,5.0,5.0,62,0.00,,,0.00,VWS V14.01,2013-07-05 14:03:00,
2013-07-05 09:08:00,67.6,55.8,29.64,South,184,2.0,6.0,66,0.00,,,0.00,VWS V14.01,2013-07-05 14:08:00,
2013-07-05 09:13:00,67.8,54.8,29.64,South,184,5.0,6.0,63,0.00,,,0.00,VWS V14.01,2013-07-05 14:13:00,
2013-07-05 09:18:00,68.3,55.2,29.65,South,189,5.0,7.0,63,0.00,,,0.00,VWS V14.01,2013-07-05 14:18:00,
2013-07-05 09:23:00,68.8,55.3,29.65,SSW,193,5.0,7.0,62,0.00,,,0.00,VWS V14.01,2013-07-05 14:23:00,
2013-07-05 09:28:00,69.4,55.4,29.65,SSW,195,5.0,8.0,61,0.00,,,0.00,VWS V14.01,2013-07-05 14:28:00,
2013-07-05 09:33:00,70.1,56.0,29.64,South,184,6.0,7.0,61,0.00,,,0.00,VWS V14.01,2013-07-05 14:33:00,
2013-07-05 09:38:00,70.9,56.8,29.64,SSW,203,5.0,10.0,61,0.00,,,0.00,VWS V14.01,2013-07-05 14:38:00,
2013-07-05 09:44:00,71.5,56.4,29.64,SSW,199,7.0,10.0,59,0.00,,,0.00,VWS V14.01,2013-07-05 14:44:00,
2013-07-05 09:49:00,72.1,55.6,29.64,SSW,199,9.0,10.0,56,0.00,,,0.00,VWS V14.01,2013-07-05 14:49:00,
2013-07-05 09:54:00,72.8,57.7,29.64,SSW,196,7.0,10.0,59,0.00,,,0.00,VWS V14.01,2013-07-05 14:54:00,
2013-07-05 09:59:00,73.5,56.9,29.64,SSW,200,5.0,12.0,56,0.00,,,0.00,VWS V14.01,2013-07-05 14:59:00,
2013-07-05 10:04:00,73.9,56.2,29.63,South,186,8.0,10.0,54,0.00,,,0.00,VWS V14.01,2013-07-05 15:04:00,
2013-07-05 10:09:00,74.0,56.3,29.63,SSW,196,5.0,10.0,54,0.00,,,0.00,VWS V14.01,2013-07-05 15:09:00,
2013-07-05 10:14:00,74.6,55.3,29.63,South,186,4.0,11.0,51,0.00,,,0.00,VWS V14.01,2013-07-05 15:14:00,
2013-07-05 10:19:00,75.1,56.8,29.62,South,179,5.0,8.0,53,0.00,,,0.00,VWS V14.01,2013-07-05 15:19:00,
2013-07-05 10:24:00,75.1,56.8,29.62,South,186,6.0,8.0,53,0.00,,,0.00,VWS V14.01,2013-07-05 15:24:00,
2013-07-05 10:29:00,75.3,56.5,29.62,SSW,196,6.0,8.0,52,0.00,,,0.00,VWS V14.01,2013-07-05 15:29:00,
2013-07-05 10:34:00,75.4,57.1,29.62,SSW,193,4.0,9.0,53,0.00,,,0.00,VWS V14.01,2013-07-05 15:34:00,
2013-07-05 10:39:00,75.4,56.0,29.62,South,185,5.0,10.0,51,0.00,,,0.00,VWS V14.01,2013-07-05 15:39:00,
2013-07-05 10:44:00,75.6,56.2,29.62,SSW,193,7.0,10.0,51,0.00,,,0.00,VWS V14.01,2013-07-05 15:44:00,
2013-07-05 10:49:00,75.8,57.5,29.62,SSW,192,3.0,6.0,53,0.00,,,0.00,VWS V14.01,2013-07-05 15:49:00,
2013-07-05 10:50:00,75.8,57.5,29.62,SSW,192,4.0,6.0,53,0.00,,,0.00,VWS V14.01,2013-07-05 15:50:00,
2013-07-05 10:55:00,76.3,56.9,29.62,SSW,195,6.0,8.0,51,0.00,,,0.00,VWS V14.01,2013-07-05 15:55:00,
2013-07-05 11:00:00,77.0,57.0,29.62,SSW,196,5.0,10.0,50,0.00,,,0.00,VWS V14.01,2013-07-05 16:00:00,
2013-07-05 11:05:00,77.6,57.5,29.61,South,189,6.0,7.0,50,0.00,,,0.00,VWS V14.01,2013-07-05 16:05:00,
2013-07-05 11:10:00,78.1,56.2,29.61,South,169,3.0,8.0,47,0.00,,,0.00,VWS V14.01,2013-07-05 16:10:00,
2013-07-05 11:15:00,78.5,55.4,29.61,South,179,6.0,10.0,45,0.00,,,0.00,VWS V14.01,2013-07-05 16:15:00,
2013-07-05 11:20:00,79.0,56.5,29.61,South,179,7.0,7.0,46,0.00,,,0.00,VWS V14.01,2013-07-05 16:20:00,
2013-07-05 11:25:00,79.2,58.4,29.61,SSW,198,7.0,12.0,49,0.00,,,0.00,VWS V14.01,2013-07-05 16:25:00,
2013-07-05 11:30:00,79.8,57.2,29.61,SSW,199,5.0,12.0,46,0.00,,,0.00,VWS V14.01,2013-07-05 16:30:00,
2013-07-05 11:35:00,79.9,55.4,29.61,South,185,4.0,7.0,43,0.00,,,0.00,VWS V14.01,2013-07-05 16:35:00,
2013-07-05 11:40:00,80.7,57.4,29.61,SSE,161,5.0,11.0,45,0.00,,,0.00,VWS V14.01,2013-07-05 16:40:00,
2013-07-05 11:45:00,80.9,57.0,29.61,SSW,195,8.0,11.0,44,0.00,,,0.00,VWS V14.01,2013-07-05 16:45:00,
2013-07-05 11:50:00,81.1,57.2,29.60,SSW,206,5.0,12.0,44,0.00,,,0.00,VWS V14.01,2013-07-05 16:50:00,
2013-07-05 11:55:00,81.4,56.1,29.60,SSW,193,7.0,12.0,42,0.00,,,0.00,VWS V14.01,2013-07-05 16:55:00,
2013-07-05 12:00:00,82.2,55.5,29.60,South,179,7.0,12.0,40,0.00,,,0.00,VWS V14.01,2013-07-05 17:00:00,
2013-07-05 12:05:00,82.6,55.2,29.60,SSW,195,7.0,8.0,39,0.00,,,0.00,VWS V14.01,2013-07-05 17:05:00,
2013-07-05 12:10:00,82.8,58.0,29.60,SSW,196,3.0,11.0,43,0.00,,,0.00,VWS V14.01,2013-07-05 17:10:00,
2013-07-05 12:15:00,83.2,57.8,29.60,South,179,8.0,11.0,42,0.00,,,0.00,VWS V14.01,2013-07-05 17:15:00,
2013-07-05 12:20:00,83.6,57.4,29.59,South,181,5.0,7.0,41,0.00,,,0.00,VWS V14.01,2013-07-05 17:20:00,
2013-07-05 12:25:00,84.0,56.4,29.59,SSW,195,7.0,11.0,39,0.00,,,0.00,VWS V14.01,2013-07-05 17:25:00,
2013-07-05 12:30:00,84.3,57.4,29.59,SSW,195,3.0,11.0,40,0.00,,,0.00,VWS V14.01,2013-07-05 17:30:00,
2013-07-05 12:35:00,84.9,57.9,29.59,SSW,193,3.0,10.0,40,0.00,,,0.00,VWS V14.01,2013-07-05 17:35:00,
2013-07-05 12:40:00,85.5,57.7,29.59,SSW,199,5.0,10.0,39,0.00,,,0.00,VWS V14.01,2013-07-05 17:40:00,
2013-07-05 12:45:00,85.7,55.7,29.59,SSW,205,12.0,12.0,36,0.00,,,0.00,VWS V14.01,2013-07-05 17:45:00,
2013-07-05 12:50:00,86.1,56.8,29.58,SSW,206,5.0,11.0,37,0.00,,,0.00,VWS V14.01,2013-07-05 17:50:00,
2013-07-05 12:55:00,86.5,56.4,29.58,SSW,202,7.0,11.0,36,0.00,,,0.00,VWS V14.01,2013-07-05 17:55:00,
2013-07-05 13:00:00,86.3,55.5,29.58,South,191,7.0,15.0,35,0.00,,,0.00,VWS V14.01,2013-07-05 18:00:00,
2013-07-05 13:05:00,86.5,56.4,29.58,SSW,192,2.0,7.0,36,0.00,,,0.00,VWS V14.01,2013-07-05 18:05:00,
2013-07-05 13:10:00,87.0,56.1,29.58,SSW,198,7.0,11.0,35,0.00,,,0.00,VWS V14.01,2013-07-05 18:10:00,
2013-07-05 13:15:00,87.0,56.8,29.58,SSW,195,2.0,12.0,36,0.00,,,0.00,VWS V14.01,2013-07-05 18:15:00,
2013-07-05 13:20:00,87.2,56.2,29.58,South,181,5.0,9.0,35,0.00,,,0.00,VWS V14.01,2013-07-05 18:20:00,
2013-07-05 13:25:00,87.4,58.7,29.58,SSW,208,11.0,11.0,38,0.00,,,0.00,VWS V14.01,2013-07-05 18:25:00,
2013-07-05 13:26:00,87.6,56.6,29.58,South,174,5.0,11.0,35,0.00,,,0.00,VWS V14.01,2013-07-05 18:26:00,
2013-07-05 13:31:00,87.6,57.4,29.58,SSW,192,7.0,12.0,36,0.00,,,0.00,VWS V14.01,2013-07-05 18:31:00,
2013-07-05 13:36:00,88.0,58.5,29.58,South,179,5.0,5.0,37,0.00,,,0.00,VWS V14.01,2013-07-05 18:36:00,
2013-07-05 13:41:00,88.2,57.9,29.58,SSE,158,2.0,11.0,36,0.00,,,0.00,VWS V14.01,2013-07-05 18:41:00,
2013-07-05 13:46:00,88.6,56.7,29.58,South,179,1.0,11.0,34,0.00,,,0.00,VWS V14.01,2013-07-05 18:46:00,
2013-07-05 13:51:00,88.8,56.8,29.57,ESE,116,5.0,10.0,34,0.00,,,0.00,VWS V14.01,2013-07-05 18:51:00,
2013-07-05 13:56:00,88.4,58.8,29.57,South,189,5.0,10.0,37,0.00,,,0.00,VWS V14.01,2013-07-05 18:56:00,
2013-07-05 14:01:00,88.6,58.2,29.57,SSE,164,0.0,10.0,36,0.00,,,0.00,VWS V14.01,2013-07-05 19:01:00,
2013-07-05 14:06:00,88.8,59.2,29.57,SSW,195,3.0,5.0,37,0.00,,,0.00,VWS V14.01,2013-07-05 19:06:00,
2013-07-05 14:11:00,89.3,58.1,29.57,SW,222,0.0,11.0,35,0.00,,,0.00,VWS V14.01,2013-07-05 19:11:00,
2013-07-05 14:16:00,89.0,57.8,29.57,SSW,198,6.0,11.0,35,0.00,,,0.00,VWS V14.01,2013-07-05 19:16:00,
2013-07-05 14:21:00,89.9,58.6,29.57,South,171,7.0,7.0,35,0.00,,,0.00,VWS V14.01,2013-07-05 19:21:00,
2013-07-05 14:26:00,89.7,58.4,29.57,ESE,117,0.0,8.0,35,0.00,,,0.00,VWS V14.01,2013-07-05 19:26:00,
2013-07-05 14:31:00,89.5,58.3,29.57,SE,134,2.0,11.0,35,0.00,,,0.00,VWS V14.01,2013-07-05 19:31:00,
2013-07-05 14:36:00,89.7,57.6,29.57,SE,140,3.0,5.0,34,0.00,,,0.00,VWS V14.01,2013-07-05 19:36:00,
2013-07-05 14:41:00,89.7,56.8,29.57,SSW,203,5.0,7.0,33,0.00,,,0.00,VWS V14.01,2013-07-05 19:41:00,
2013-07-05 14:46:00,90.1,56.3,29.57,SE,130,6.0,10.0,32,0.00,,,0.00,VWS V14.01,2013-07-05 19:46:00,
2013-07-05 14:51:00,90.1,58.0,29.56,SSE,162,3.0,6.0,34,0.00,,,0.00,VWS V14.01,2013-07-05 19:51:00,
2013-07-05 14:56:00,90.1,58.0,29.56,SSE,160,6.0,7.0,34,0.00,,,0.00,VWS V14.01,2013-07-05 19:56:00,
2013-07-05 15:01:00,90.1,58.0,29.56,SE,136,1.0,12.0,34,0.00,,,0.00,VWS V14.01,2013-07-05 20:01:00,
2013-07-05 15:06:00,90.1,57.2,29.56,South,182,3.0,7.0,33,0.00,,,0.00,VWS V14.01,2013-07-05 20:06:00,
2013-07-05 15:11:00,89.9,58.6,29.56,South,182,2.0,7.0,35,0.00,,,0.00,VWS V14.01,2013-07-05 20:11:00,
2013-07-05 15:16:00,89.7,58.4,29.56,South,172,5.0,7.0,35,0.00,,,0.00,VWS V14.01,2013-07-05 20:16:00,
2013-07-05 15:21:00,89.7,55.1,29.56,SSE,167,0.0,10.0,31,0.00,,,0.00,VWS V14.01,2013-07-05 20:21:00,
2013-07-05 15:26:00,89.5,59.0,29.56,SSE,168,3.0,10.0,36,0.00,,,0.00,VWS V14.01,2013-07-05 20:26:00,
2013-07-05 15:31:00,89.9,56.1,29.56,SE,141,2.0,13.0,32,0.00,,,0.00,VWS V14.01,2013-07-05 20:31:00,
2013-07-05 15:36:00,90.1,58.0,29.56,SSE,152,4.0,7.0,34,0.00,,,0.00,VWS V14.01,2013-07-05 20:36:00,
2013-07-05 15:41:00,89.9,57.0,29.56,SSW,209,2.0,11.0,33,0.00,,,0.00,VWS V14.01,2013-07-05 20:41:00,
2013-07-05 15:46:00,89.7,57.6,29.56,South,186,3.0,12.0,34,0.00,,,0.00,VWS V14.01,2013-07-05 20:46:00,
2013-07-05 15:51:00,89.3,55.6,29.56,SE,145,2.0,10.0,32,0.00,,,0.00,VWS V14.01,2013-07-05 20:51:00,
2013-07-05 15:56:00,89.3,52.0,29.56,South,181,3.0,10.0,28,0.00,,,0.00,VWS V14.01,2013-07-05 20:56:00,
2013-07-05 16:01:00,89.0,52.7,29.56,SSW,199,6.0,10.0,29,0.00,,,0.00,VWS V14.01,2013-07-05 21:01:00,
2013-07-05 16:06:00,89.0,52.7,29.56,SSE,167,2.0,11.0,29,0.00,,,0.00,VWS V14.01,2013-07-05 21:06:00,
2013-07-05 16:11:00,88.8,51.5,29.56,South,171,3.0,11.0,28,0.00,,,0.00,VWS V14.01,2013-07-05 21:11:00,
2013-07-05 16:16:00,88.8,53.4,29.56,South,171,2.0,11.0,30,0.00,,,0.00,VWS V14.01,2013-07-05 21:16:00,
2013-07-05 16:21:00,88.6,52.3,29.56,South,191,2.0,10.0,29,0.00,,,0.00,VWS V14.01,2013-07-05 21:21:00,
2013-07-05 16:26:00,88.6,51.4,29.56,South,188,2.0,10.0,28,0.00,,,0.00,VWS V14.01,2013-07-05 21:26:00,
2013-07-05 16:31:00,88.4,51.2,29.56,SSW,205,5.0,10.0,28,0.00,,,0.00,VWS V14.01,2013-07-05 21:31:00,
2013-07-05 16:36:00,88.4,52.1,29.57,SSE,160,0.0,5.0,29,0.00,,,0.00,VWS V14.01,2013-07-05 21:36:00,
2013-07-05 16:41:00,88.2,52.0,29.57,SSE,160,1.0,5.0,29,0.00,,,0.00,VWS V14.01,2013-07-05 21:41:00,
2013-07-05 16:46:00,88.2,52.9,29.57,SSE,160,1.0,5.0,30,0.00,,,0.00,VWS V14.01,2013-07-05 21:46:00,
2013-07-05 16:51:00,88.0,53.6,29.56,SSE,160,1.0,5.0,31,0.00,,,0.00,VWS V14.01,2013-07-05 21:51:00,
2013-07-05 16:56:00,88.0,53.6,29.56,SSE,161,2.0,5.0,31,0.00,,,0.00,VWS V14.01,2013-07-05 21:56:00,
2013-07-05 17:01:00,87.8,54.3,29.56,SSE,162,1.0,5.0,32,0.00,,,0.00,VWS V14.01,2013-07-05 22:01:00,
2013-07-05 17:06:00,87.8,54.3,29.56,SE,145,2.0,7.0,32,0.00,,,0.00,VWS V14.01,2013-07-05 22:06:00,
2013-07-05 17:11:00,87.8,55.2,29.56,South,176,3.0,7.0,33,0.00,,,0.00,VWS V14.01,2013-07-05 22:11:00,
2013-07-05 17:16:00,87.6,54.1,29.56,SSW,195,0.0,8.0,32,0.00,,,0.00,VWS V14.01,2013-07-05 22:16:00,
2013-07-05 17:21:00,87.8,54.3,29.56,SSW,199,0.0,5.0,32,0.00,,,0.00,VWS V14.01,2013-07-05 22:21:00,
2013-07-05 17:26:00,87.8,53.4,29.56,SE,136,1.0,8.0,31,0.00,,,0.00,VWS V14.01,2013-07-05 22:26:00,
2013-07-05 17:31:00,87.6,54.1,29.56,South,185,2.0,8.0,32,0.00,,,0.00,VWS V14.01,2013-07-05 22:31:00,
2013-07-05 17:36:00,87.4,53.1,29.55,SSW,195,1.0,6.0,31,0.00,,,0.00,VWS V14.01,2013-07-05 22:36:00,
2013-07-05 17:37:00,87.4,53.1,29.55,SSW,195,0.0,6.0,31,0.00,,,0.00,VWS V14.01,2013-07-05 22:37:00,
2013-07-05 17:42:00,87.2,55.4,29.55,SSW,195,1.0,6.0,34,0.00,,,0.00,VWS V14.01,2013-07-05 22:42:00,
2013-07-05 17:47:00,87.0,55.3,29.56,South,172,0.0,7.0,34,0.00,,,0.00,VWS V14.01,2013-07-05 22:47:00,
2013-07-05 17:52:00,86.7,55.8,29.56,South,172,2.0,5.0,35,0.00,,,0.00,VWS V14.01,2013-07-05 22:52:00,
2013-07-05 17:57:00,86.5,56.4,29.56,South,174,1.0,5.0,36,0.00,,,0.00,VWS V14.01,2013-07-05 22:57:00,
2013-07-05 18:02:00,86.3,57.0,29.55,South,174,0.0,5.0,37,0.00,,,0.00,VWS V14.01,2013-07-05 23:02:00,
2013-07-05 18:07:00,85.9,58.1,29.55,South,174,0.0,2.0,39,0.00,,,0.00,VWS V14.01,2013-07-05 23:07:00,
2013-07-05 18:12:00,85.7,58.6,29.55,South,174,0.0,2.0,40,0.00,,,0.00,VWS V14.01,2013-07-05 23:12:00,
2013-07-05 18:17:00,85.3,60.3,29.55,South,174,0.0,2.0,43,0.00,,,0.00,VWS V14.01,2013-07-05 23:17:00,
2013-07-05 18:22:00,84.7,61.7,29.55,South,174,0.0,2.0,46,0.00,,,0.00,VWS V14.01,2013-07-05 23:22:00,
2013-07-05 18:27:00,84.5,60.2,29.55,South,174,0.0,2.0,44,0.00,,,0.00,VWS V14.01,2013-07-05 23:27:00,
2013-07-05 18:32:00,84.5,60.2,29.56,South,172,0.0,2.0,44,0.00,,,0.00,VWS V14.01,2013-07-05 23:32:00,
2013-07-05 18:37:00,84.5,60.2,29.56,South,172,0.0,2.0,44,0.00,,,0.00,VWS V14.01,2013-07-05 23:37:00,
2013-07-05 18:42:00,84.5,59.6,29.56,South,188,2.0,6.0,43,0.00,,,0.00,VWS V14.01,2013-07-05 23:42:00,
2013-07-05 18:47:00,84.3,59.4,29.55,South,188,0.0,6.0,43,0.00,,,0.00,VWS V14.01,2013-07-05 23:47:00,
2013-07-05 18:52:00,84.3,59.4,29.55,South,178,2.0,9.0,43,0.00,,,0.00,VWS V14.01,2013-07-05 23:52:00,
2013-07-05 18:57:00,84.5,56.8,29.55,SSE,165,1.0,9.0,39,0.00,,,0.00,VWS V14.01,2013-07-05 23:57:00,
2013-07-05 19:02:00,84.7,57.0,29.55,South,182,0.0,9.0,39,0.00,,,0.00,VWS V14.01,2013-07-06 00:02:00,
2013-07-05 19:07:00,84.7,57.0,29.55,South,181,1.0,5.0,39,0.00,,,0.00,VWS V14.01,2013-07-06 00:07:00,
2013-07-05 19:12:00,84.7,57.0,29.55,South,171,0.0,5.0,39,0.00,,,0.00,VWS V14.01,2013-07-06 00:12:00,
2013-07-05 19:17:00,84.5,57.5,29.55,SSW,196,2.0,7.0,40,0.00,,,0.00,VWS V14.01,2013-07-06 00:17:00,
2013-07-05 19:22:00,84.3,58.7,29.55,SSW,196,1.0,2.0,42,0.00,,,0.00,VWS V14.01,2013-07-06 00:22:00,
2013-07-05 19:27:00,83.4,60.5,29.55,SSW,196,0.0,3.0,46,0.00,,,0.00,VWS V14.01,2013-07-06 00:27:00,
2013-07-05 19:32:00,83.0,60.7,29.56,SSW,196,0.0,3.0,47,0.00,,,0.00,VWS V14.01,2013-07-06 00:32:00,
2013-07-05 19:37:00,82.8,59.9,29.56,South,191,0.0,5.0,46,0.00,,,0.00,VWS V14.01,2013-07-06 00:37:00,
2013-07-05 19:42:00,82.8,59.9,29.56,SSE,167,0.0,8.0,46,0.00,,,0.00,VWS V14.01,2013-07-06 00:42:00,
2013-07-05 19:47:00,82.8,59.9,29.55,South,175,1.0,8.0,46,0.00,,,0.00,VWS V14.01,2013-07-06 00:47:00,
2013-07-05 19:52:00,82.6,59.8,29.55,South,179,5.0,7.0,46,0.00,,,0.00,VWS V14.01,2013-07-06 00:52:00,
2013-07-05 19:57:00,82.6,60.9,29.55,South,174,5.0,7.0,48,0.00,,,0.00,VWS V14.01,2013-07-06 00:57:00,
2013-07-05 20:02:00,82.6,59.8,29.56,SSE,161,4.0,10.0,46,0.00,,,0.00,VWS V14.01,2013-07-06 01:02:00,
2013-07-05 20:07:00,82.4,59.6,29.56,South,189,2.0,5.0,46,0.00,,,0.00,VWS V14.01,2013-07-06 01:07:00,
2013-07-05 20:12:00,82.4,59.6,29.56,SSE,154,1.0,14.0,46,0.00,,,0.00,VWS V14.01,2013-07-06 01:12:00,
2013-07-05 20:17:00,82.4,59.6,29.56,SSW,193,2.0,14.0,46,0.00,,,0.00,VWS V14.01,2013-07-06 01:17:00,
2013-07-05 20:22:00,82.4,59.6,29.56,SSE,164,2.0,10.0,46,0.00,,,0.00,VWS V14.01,2013-07-06 01:22:00,
2013-07-05 20:27:00,82.4,60.2,29.56,South,169,0.0,10.0,47,0.00,,,0.00,VWS V14.01,2013-07-06 01:27:00,
2013-07-05 20:32:00,82.2,60.0,29.55,South,169,3.0,10.0,47,0.00,,,0.00,VWS V14.01,2013-07-06 01:32:00,
2013-07-05 20:37:00,82.0,59.8,29.55,South,179,2.0,7.0,47,0.00,,,0.00,VWS V14.01,2013-07-06 01:37:00,
2013-07-05 20:42:00,82.0,59.8,29.55,South,188,2.0,10.0,47,0.00,,,0.00,VWS V14.01,2013-07-06 01:42:00,
2013-07-05 20:47:00,82.0,61.0,29.56,SE,141,3.0,10.0,49,0.00,,,0.00,VWS V14.01,2013-07-06 01:47:00,
2013-07-05 20:52:00,81.8,60.8,29.56,SSW,198,1.0,7.0,49,0.00,,,0.00,VWS V14.01,2013-07-06 01:52:00,
2013-07-05 20:57:00,81.8,60.8,29.56,SE,143,2.0,7.0,49,0.00,,,0.00,VWS V14.01,2013-07-06 01:57:00,
2013-07-05 21:02:00,81.8,59.6,29.56,SE,134,1.0,10.0,47,0.00,,,0.00,VWS V14.01,2013-07-06 02:02:00,
2013-07-05 21:07:00,81.8,59.0,29.56,SE,145,3.0,8.0,46,0.00,,,0.00,VWS V14.01,2013-07-06 02:07:00,
2013-07-05 21:08:00,82.0,59.2,29.56,SE,145,2.0,8.0,46,0.00,,,0.00,VWS V14.01,2013-07-06 02:08:00,
2013-07-05 21:13:00,82.0,59.2,29.56,SSE,158,2.0,13.0,46,0.00,,,0.00,VWS V14.01,2013-07-06 02:13:00,
2013-07-05 21:18:00,82.0,59.2,29.55,SSE,162,5.0,5.0,46,0.00,,,0.00,VWS V14.01,2013-07-06 02:18:00,
2013-07-05 21:23:00,82.2,59.4,29.55,SSE,157,1.0,6.0,46,0.00,,,0.00,VWS V14.01,2013-07-06 02:23:00,
2013-07-05 21:28:00,82.2,59.4,29.55,SE,136,3.0,9.0,46,0.00,,,0.00,VWS V14.01,2013-07-06 02:28:00,
2013-07-05 21:33:00,82.2,59.4,29.56,SSE,168,2.0,3.0,46,0.00,,,0.00,VWS V14.01,2013-07-06 02:33:00,
2013-07-05 21:38:00,82.2,59.4,29.56,South,176,2.0,7.0,46,0.00,,,0.00,VWS V14.01,2013-07-06 02:38:00,
2013-07-05 21:43:00,82.2,59.4,29.56,SE,131,1.0,7.0,46,0.00,,,0.00,VWS V14.01,2013-07-06 02:43:00,
2013-07-05 21:48:00,82.0,59.2,29.57,SSE,162,3.0,3.0,46,0.00,,,0.00,VWS V14.01,2013-07-06 02:48:00,
2013-07-05 21:53:00,82.0,59.2,29.57,SSE,160,2.0,7.0,46,0.00,,,0.00,VWS V14.01,2013-07-06 02:53:00,
2013-07-05 21:58:00,82.0,59.2,29.57,South,175,2.0,7.0,46,0.00,,,0.00,VWS V14.01,2013-07-06 02:58:00,
2013-07-05 22:03:00,81.8,58.4,29.58,SSE,158,2.0,2.0,45,0.00,,,0.00,VWS V14.01,2013-07-06 03:03:00,
2013-07-05 22:08:00,81.6,60.0,29.58,South,169,5.0,7.0,48,0.00,,,0.00,VWS V14.01,2013-07-06 03:08:00,
2013-07-05 22:13:00,81.2,60.2,29.58,South,181,2.0,7.0,49,0.00,,,0.00,VWS V14.01,2013-07-06 03:13:00,
2013-07-05 22:18:00,80.7,60.9,29.57,South,191,3.0,6.0,51,0.00,,,0.00,VWS V14.01,2013-07-06 03:18:00,
2013-07-05 22:23:00,80.1,60.9,29.57,SSW,193,6.0,9.0,52,0.00,,,0.00,VWS V14.01,2013-07-06 03:23:00,
2013-07-05 22:28:00,79.8,60.6,29.57,South,175,2.0,10.0,52,0.00,,,0.00,VWS V14.01,2013-07-06 03:28:00,
2013-07-05 22:33:00,79.4,60.8,29.57,SSW,196,7.0,8.0,53,0.00,,,0.00,VWS V14.01,2013-07-06 03:33:00,
2013-07-05 22:38:00,79.0,61.5,29.57,SSW,206,7.0,10.0,55,0.00,,,0.00,VWS V14.01,2013-07-06 03:38:00,
2013-07-05 22:43:00,78.6,61.6,29.57,SSW,200,7.0,10.0,56,0.00,,,0.00,VWS V14.01,2013-07-06 03:43:00,
2013-07-05 22:48:00,78.5,61.5,29.58,SSW,202,3.0,6.0,56,0.00,,,0.00,VWS V14.01,2013-07-06 03:48:00,
2013-07-05 22:53:00,78.5,61.0,29.58,SSW,192,5.0,8.0,55,0.00,,,0.00,VWS V14.01,2013-07-06 03:53:00,
2013-07-05 22:58:00,78.6,60.6,29.58,South,191,4.0,10.0,54,0.00,,,0.00,VWS V14.01,2013-07-06 03:58:00,
2013-07-05 23:01:00,78.8,60.2,29.58,South,175,6.0,10.0,53,0.00,,,0.00,VWS V14.01,2013-07-06 04:01:00,
2013-07-05 23:06:00,78.8,60.2,29.58,SSE,161,3.0,7.0,53,0.00,,,0.00,VWS V14.01,2013-07-06 04:06:00,
2013-07-05 23:11:00,78.8,61.3,29.58,South,184,2.0,8.0,55,0.00,,,0.00,VWS V14.01,2013-07-06 04:11:00,
2013-07-05 23:16:00,78.6,61.1,29.58,South,174,2.0,10.0,55,0.00,,,0.00,VWS V14.01,2013-07-06 04:16:00,
2013-07-05 23:21:00,78.3,62.3,29.56,SSE,152,1.0,7.0,58,0.00,,,0.00,VWS V14.01,2013-07-06 04:21:00,
2013-07-05 23:26:00,78.1,61.6,29.56,South,189,4.0,8.0,57,0.00,,,0.00,VWS V14.01,2013-07-06 04:26:00,
2013-07-05 23:31:00,77.9,62.0,29.56,SSE,161,5.0,10.0,58,0.00,,,0.00,VWS V14.01,2013-07-06 04:31:00,
2013-07-05 23:36:00,77.7,60.8,29.56,SSW,193,3.0,9.0,56,0.00,,,0.00,VWS V14.01,2013-07-06 04:36:00,
2013-07-05 23:41:00,77.7,60.8,29.56,SSW,196,5.0,11.0,56,0.00,,,0.00,VWS V14.01,2013-07-06 04:41:00,
2013-07-05 23:46:00,77.7,61.3,29.56,SSE,168,1.0,11.0,57,0.00,,,0.00,VWS V14.01,2013-07-06 04:46:00,
2013-07-05 23:51:00,77.7,61.3,29.56,South,176,3.0,6.0,57,0.00,,,0.00,VWS V14.01,2013-07-06 04:51:00,
2013-07-05 23:56:00,77.6,61.7,29.56,South,185,1.0,10.0,58,0.00,,,0.00,VWS V14.01,2013-07-06 04:56:00,